Showing default

METEOR M2-2, 44387

Orbit data source: Space-Track

METEOR M2-2, 44387 is a Commonwealth of Independent States-origin payload satellite in SSO that was launched on Fri, 05 Jul 2019 UTC via a SOYUZ-2-1B launch vehicle from the Vostochny Cosmodrome (VOSTO). Payload-class satellites include a variety of spacecraft equipped with specific instruments for various scientific and technological missions. These include communications satellites like Starlink; space stations such as the ISS; scientific satellites like the Hubble; Earth observation satellites from companies like Planet Labs, Umbra, and HawkEye 360; GPS; miniature CubeSats for education and research; and military/defense satellites.

Loading next visibility...
Identifier
44387, 2019-038A
Orbit
SSO
Country
Flag of CISCIS
Related business
Manufacturer
VNIIEM
Mission
Partially operational Civil Weather
Bus & Motor
RESURS-O, Unknown motor
Mass
2,879 kg wet, ~2,600 kg dry
Launch date (UTC)
2019-07-05 (6 years ago)
Launch vehicle
SOYUZ-2-1B
Launch site
Vostochny Cosmodrome (VOSTO)
Object type
Payload
Rocket body
Debris
Shape & HBR
Cyl + 2 Pan, 7.0 m
Radar Cross Section
26.744 m², Large (>1 m²)

Expand to show TLE details & history
Last TLE update: 16 hours ago

TLE from 16 hours ago
0 METEOR M2-2
1 44387U 19038A   25287.93691554  .00000231  00000-0  11978-3 0  9998
2 44387  98.8903 266.9638 0001799  42.1857 317.9460 14.24253767326381
Epoch: 2025-10-14T22:29Z
TLE epoch observation values (Epoch: 2025-10-14T22:29:09.502Z)
Latitude
0.00002°
Longitude
-94.04398°
Altitude
812.957 km
Speed
7.447 km/s
True Right ascension
17h 47m 51s
True Declination
0° 00' 00"
Sunlit
Object was in daylight at epoch
Visualization orbit readout
Latitude
Unknown
Longitude
Unknown
Altitude
Unknown
Speed
Unknown
Apparent Right ascension
Unknown
Apparent Declination
Unknown
Sunlit
N/A
Visualization observer readout
Local Sidereal Time
08:41:54
Azimuth
Unknown
Elevation
Unknown
Doppler factor
Unknown
Orbital elements
Apogee altitude
809.457 km
Perigee altitude
806.872 km
Semi-major axis
7,186.301 km
Eccentricity
0.00018
Inclination
98.8903°
RAAN
266.9638°
Arg. of periapsis
42.1857°
True anomaly
317.93219°
Mean anomaly
317.946°
Eccentric anomaly
317.93909°
Mean motion
3.56275 °/min
Orbital period
101.05 mins
BSTAR
0.00011978
Loading maneuver chart data...
Computing Atmospheric mass density...

Documentation

Showing up to 5 results
|